Weather History for Sitka, AK

Change the Weather History Date:

Sunday, November 6, 2011

  Actual Average Record
Temperature  
Mean Temperature 42 °F -  
Max Temperature 44 °F 45 °F 55 °F (2002)
Min Temperature 39 °F 36 °F 19 °F (1973)
Degree Days  
Heating Degree Days 24    
Moisture  
Dew Point 38 °F    
Average Humidity 88    
Maximum Humidity 100    
Minimum Humidity 71    
Precipitation  
Precipitation 0.97 in - - ()
Sea Level Pressure  
Sea Level Pressure 29.71 in    
Wind  
Wind Speed 6 mph (SE)    
Max Wind Speed 16 mph    
Max Gust Speed 23 mph    
Visibility 8 miles    
Events Rain , Thunderstorm    
Averages and records for this station are not official NWS values.
T = Trace of Precipitation, MM = Missing Value Source: NWS Daily Summary

Daily Weather History Graph

Daily Weather History Graph

Search for Another Location

Airport:

Trip Planner

Search our weather history database for the weather conditions in past years. The results will help you decide how hot, cold, wet, or windy it might be!

Date:

Astronomy

Nov. 06, 2011 Rise Set
Actual Time 7:23 AM AKST 4:06 PM AKST
Civil Twilight 6:41 AM AKST 4:48 PM AKST
Nautical Twilight 5:55 AM AKST 5:33 PM AKST
Astronomical Twilight 5:10 AM AKST 6:18 PM AKST
Moon 2:25 PM AKST (11/6) 2:59 AM AKST (11/6)
Length of Visible Light 10h 06m
Length of Day
8h 43m
Waxing Gibbous, 86% of the Moon is Illuminated
Nov 6
Waxing Gibbous
Nov 10
Full
Nov 18
Last Quarter
Nov 24
New
Dec 2
First Quarter

Hourly Weather History & Observations

Time (AKST) Temp. Windchill Dew Point Humidity Pressure Visibility Wind Dir Wind Speed Gust Speed Precip Events Conditions
12:00 AM 41.0 °F 39.0 °F 41.0 °F 100% 29.79 in 4.0 mi ESE 3.5 mph - 0.00 in Rain Light Rain
12:13 AM 41.0 °F 39.0 °F 39.2 °F 93% 29.80 in 2.0 mi SE 3.5 mph - 0.05 in Rain Heavy Rain
12:25 AM 41.0 °F 38.0 °F 41.0 °F 100% 29.79 in 5.0 mi ESE 4.6 mph - 0.09 in Rain Rain
12:37 AM 41.0 °F - 41.0 °F 100% 29.80 in 6.0 mi Calm Calm - 0.10 in Rain Light Rain
12:53 AM 41.0 °F - 41.0 °F 100% 29.81 in 10.0 mi Calm Calm - 0.10 in   Overcast
1:53 AM 41.0 °F 37.1 °F 39.9 °F 96% 29.81 in 10.0 mi East 5.8 mph - N/A   Overcast
1:25 AM 39.2 °F 35.9 °F 39.2 °F 100% 29.81 in 3.0 mi East 4.6 mph - 0.01 in Rain Light Rain
1:53 AM 41.0 °F 38.0 °F 39.9 °F 96% 29.81 in 3.0 mi East 4.6 mph - 0.04 in Rain Heavy Rain
1:59 AM 41.0 °F 38.0 °F 39.2 °F 93% 29.80 in 5.0 mi East 4.6 mph - 0.00 in Rain Light Rain
2:53 AM 42.8 °F - 39.2 °F 87% 29.80 in 10.0 mi Calm Calm - N/A   Overcast
3:27 AM 42.8 °F 37.5 °F 37.4 °F 81% 29.80 in 10.0 mi West 9.2 mph - 0.00 in   Overcast
3:51 AM 42.8 °F - 39.2 °F 87% 29.80 in 10.0 mi Calm Calm - 0.00 in   Overcast
3:53 AM 42.1 °F - 39.0 °F 89% 29.80 in 10.0 mi Calm Calm - 0.00 in   Overcast
4:53 AM 41.0 °F 39.0 °F 39.0 °F 93% 29.80 in 10.0 mi ESE 3.5 mph - 0.05 in Rain Light Rain
5:09 AM 39.2 °F 35.9 °F 39.2 °F 100% 29.80 in 10.0 mi East 4.6 mph - 0.00 in   Overcast
5:53 AM 41.0 °F 35.8 °F 39.0 °F 93% 29.79 in 10.0 mi East 8.1 mph - 0.00 in Rain Light Rain
6:44 AM 41.0 °F 36.4 °F 37.4 °F 87% 29.77 in 10.0 mi East 6.9 mph - 0.00 in Rain Light Rain
6:53 AM 41.0 °F 34.7 °F 37.9 °F 89% 29.77 in 10.0 mi ESE 10.4 mph - 0.01 in Rain Light Rain
7:21 AM 41.0 °F 35.2 °F 37.4 °F 87% 29.76 in 10.0 mi ESE 9.2 mph - 0.00 in Rain Light Rain
7:46 AM 41.0 °F 36.4 °F 37.4 °F 87% 29.76 in 9.0 mi ESE 6.9 mph - 0.00 in Rain Light Rain
7:53 AM 41.0 °F 35.8 °F 37.9 °F 89% 29.76 in 9.0 mi ESE 8.1 mph - 0.00 in Rain Light Rain
8:09 AM 41.0 °F 36.4 °F 37.4 °F 87% 29.76 in 10.0 mi ESE 6.9 mph - 0.00 in   Overcast
8:36 AM 41.0 °F 34.3 °F 35.6 °F 81% 29.75 in 4.0 mi SSE 11.5 mph - 0.01 in Rain Light Rain
8:53 AM 39.9 °F 34.5 °F 37.0 °F 89% 29.74 in 6.0 mi ESE 8.1 mph - 0.03 in Rain Light Rain
9:53 AM 39.9 °F 33.4 °F 36.0 °F 86% 29.72 in 4.0 mi SE 10.4 mph - 0.07 in Rain Light Rain
10:53 AM 39.9 °F 32.1 °F 36.0 °F 86% 29.70 in 3.0 mi East 13.8 mph - 0.15 in Rain Heavy Rain
11:53 AM 39.9 °F 32.1 °F 37.0 °F 89% 29.67 in 4.0 mi East 13.8 mph 21.9 mph 0.14 in Rain Light Rain
12:25 PM 41.0 °F 34.3 °F 37.4 °F 87% 29.67 in 5.0 mi SE 11.5 mph 18.4 mph 0.11 in Rain Rain
12:32 PM 42.8 °F 36.2 °F 39.2 °F 87% 29.67 in 7.0 mi SSE 12.7 mph - 0.11 in Rain Light Rain
12:40 PM 42.8 °F 36.6 °F 39.2 °F 87% 29.67 in 4.0 mi SSE 11.5 mph - 0.11 in Rain Light Rain
12:51 PM 42.8 °F 36.6 °F 39.2 °F 87% 29.66 in 3.0 mi SE 11.5 mph - 0.11 in Rain Light Rain
12:53 PM 42.1 °F 35.2 °F 39.0 °F 89% 29.66 in 3.0 mi SE 12.7 mph - 0.11 in Rain Light Rain
1:30 PM 44.6 °F 37.4 °F 39.2 °F 81% 29.65 in 7.0 mi SSW 16.1 mph 23.0 mph 0.06 in Rain Light Rain
1:53 PM 44.1 °F 37.7 °F 39.9 °F 85% 29.63 in 7.0 mi South 12.7 mph 18.4 mph 0.07 in Rain Light Rain
2:53 PM 43.0 °F 35.4 °F 39.9 °F 89% 29.61 in 4.0 mi SW 16.1 mph 21.9 mph 0.05 in Rain Rain
3:49 PM 42.8 °F - 39.2 °F 87% 29.61 in 10.0 mi Calm Calm - 0.07 in Rain Light Rain
3:53 PM 42.1 °F - 39.9 °F 92% 29.62 in 10.0 mi Calm Calm - 0.07 in   Overcast
4:10 PM 42.8 °F - 39.2 °F 87% 29.62 in 10.0 mi Calm Calm - 0.00 in Rain Light Rain
4:53 PM 41.0 °F 38.0 °F 37.9 °F 89% 29.62 in 8.0 mi ENE 4.6 mph - 0.02 in Rain Light Rain
5:00 PM 39.2 °F 35.9 °F 37.4 °F 93% 29.62 in 3.0 mi ENE 4.6 mph - 0.06 in Rain Heavy Rain
5:25 PM 41.0 °F 36.4 °F 39.2 °F 93% 29.62 in 10.0 mi SSE 6.9 mph - 0.06 in   Overcast
5:53 PM 39.9 °F 36.7 °F 37.9 °F 93% 29.62 in 10.0 mi ENE 4.6 mph - 0.06 in Rain Light Rain
6:53 PM 39.9 °F 35.8 °F 37.9 °F 93% 29.64 in 10.0 mi ESE 5.8 mph - 0.00 in   Overcast
7:53 PM 43.0 °F 36.8 °F 34.0 °F 71% 29.65 in 10.0 mi WSW 11.5 mph 17.3 mph N/A   Overcast
8:53 PM 42.1 °F 36.1 °F 37.0 °F 82% 29.65 in 10.0 mi SSE 10.4 mph 18.4 mph 0.00 in Rain Light Rain
9:35 PM 41.0 °F 36.4 °F 35.6 °F 81% 29.65 in 10.0 mi ESE 6.9 mph - 0.00 in   Overcast
9:53 PM 41.0 °F 36.4 °F 36.0 °F 82% 29.65 in 10.0 mi SE 6.9 mph - 0.00 in   Overcast
10:23 PM 42.8 °F 41.1 °F 37.4 °F 81% 29.66 in 10.0 mi Variable 3.5 mph - N/A Thunderstorm Thunderstorm
10:46 PM 42.8 °F 37.0 °F 35.6 °F 76% 29.66 in 10.0 mi SW 10.4 mph - N/A   Overcast
10:53 PM 43.0 °F 36.4 °F 35.1 °F 74% 29.66 in 10.0 mi SW 12.7 mph 18.4 mph 0.00 in Rain Light Rain
10:57 PM 41.0 °F 33.1 °F 33.8 °F 76% 29.66 in 7.0 mi SSW 15.0 mph 20.7 mph 0.02 in Rain , Thunderstorm Thunderstorms and Rain